Location: Killam
(52.7910°N, 111.8608°W)
Time: 21:09:13
(UTC+00:00)

A-11 Canister half - Pass Details

Date: 24 February 2026
Orbit: 1525 x 1683 km, 47.3° (Epoch: 5 March)

Event Time Altitude Azimuth Distance (km) Brightness Sun altitude
Rises 20:43:59 0° 195° (SSW) 4,770 12.9 26.5°
Reaches altitude 10° 20:47:56 10° 181° (S) 3,762 12.6 26.3°
Maximum altitude 20:54:45 23° 135° (SE) 2,851 10.9 26.0°
Drops below altitude 10° 21:01:27 10° 88° (E) 3,707 10.9 25.6°
Sets 21:05:17 0° 75° (ENE) 4,683 11.2 25.4°
